�N����,����,�~����,�C��,���x,�C��,����,���ϕ���,�ő�u�ԕ���,�ő厞����,���˗�,�I�_���x,�n�����x,�ő啗���N��,DTYPE
"19/09/01","00:10",0.0,21.5,93.2,1011.2,295.7,0.8,1.3,319.4,0.00,20.4,24.8,"00:00:24",1
"19/09/01","00:20",0.0,21.5,93.3,1011.2,308.5,1.1,1.7,322.2,0.00,20.4,25.0,"00:13:36",1
"19/09/01","00:30",0.0,21.5,93.2,1011.4,288.3,0.8,1.2,300.1,0.00,20.4,24.8,"00:28:48",1
"19/09/01","00:40",0.0,21.5,93.5,1011.4,302.6,1.2,1.7,306.6,0.00,20.4,24.8,"00:36:40",1
"19/09/01","00:50",0.0,21.6,93.5,1011.4,321.5,1.1,1.7,335.3,0.00,20.5,24.9,"00:40:48",1
"19/09/01","01:00",0.0,21.5,93.5,1011.4,311.5,1.1,1.3,327.3,0.00,20.4,24.8,"00:51:12",1
"19/09/01","01:10",0.0,21.4,93.9,1011.2,317.4,1.0,1.3,324.2,0.00,20.4,24.7,"01:02:48",1
"19/09/01","01:20",0.0,21.4,93.9,1011.4,320.3,1.2,1.6,324.0,0.00,20.4,24.6,"01:14:16",1
"19/09/01","01:30",0.0,21.4,94.0,1011.6,313.7,1.2,1.6,318.7,0.00,20.4,24.5,"01:25:28",1
"19/09/01","01:40",0.0,21.4,94.2,1011.4,311.0,1.0,1.3,305.7,0.00,20.5,24.7,"01:30:08",1
"19/09/01","01:50",0.0,21.3,94.2,1010.9,302.1,0.3,1.2,318.5,0.00,20.4,24.7,"01:40:02",1
"19/09/01","02:00",0.0,21.3,94.3,1010.9,306.5,1.2,1.3,308.7,0.00,20.4,24.9,"01:52:56",1
"19/09/01","02:10",0.0,21.3,94.5,1011.4,303.7,1.2,1.7,315.8,0.00,20.4,24.7,"02:08:08",1
"19/09/01","02:20",0.0,21.3,94.5,1011.2,328.7,1.3,1.9,329.5,0.00,20.4,24.6,"02:19:44",1
"19/09/01","02:30",0.0,21.4,94.5,1011.4,322.6,1.6,2.0,334.1,0.00,20.5,24.7,"02:27:52",1
"19/09/01","02:40",0.0,21.4,94.6,1011.4,323.4,1.3,1.8,337.9,0.00,20.5,24.4,"02:34:24",1
"19/09/01","02:50",0.0,21.4,94.6,1011.6,283.7,0.8,1.1,280.7,0.00,20.5,24.7,"02:47:28",1
"19/09/01","03:00",0.0,21.4,94.6,1011.2,310.8,1.0,1.7,333.4,0.00,20.5,24.6,"02:54:00",1
"19/09/01","03:10",0.0,21.4,94.7,1011.4,321.9,1.5,2.0,334.5,0.00,20.6,24.5,"03:07:44",1
"19/09/01","03:20",0.0,21.4,94.7,1011.2,311.9,1.1,1.6,323.8,0.00,20.6,24.5,"03:17:04",1
"19/09/01","03:30",0.0,21.4,94.8,1010.9,283.2,0.7,1.0,266.9,0.00,20.6,24.6,"03:21:28",1
"19/09/01","03:40",0.0,21.2,94.7,1011.6,295.7,1.0,1.7,313.2,0.00,20.4,24.4,"03:32:48",1
"19/09/01","03:50",0.0,21.3,94.9,1011.4,309.2,1.2,1.9,340.0,0.00,20.5,24.4,"03:40:02",1
"19/09/01","04:00",0.0,21.4,94.9,1011.6,335.1,1.5,2.1,337.2,0.00,20.6,24.5,"03:50:08",1
"19/09/01","04:10",0.0,21.4,94.8,1011.6,297.9,1.2,2.4,340.2,0.00,20.6,24.7,"04:00:56",1
"19/09/01","04:20",0.0,21.4,94.9,1011.4,325.6,1.3,2.6,335.7,0.00,20.6,24.5,"04:14:24",1
"19/09/01","04:30",0.0,21.5,94.8,1011.9,307.1,1.0,1.3,309.7,0.00,20.7,24.5,"04:21:36",1
"19/09/01","04:40",0.0,21.5,95.0,1011.9,317.9,1.1,1.4,321.4,0.00,20.7,24.6,"04:34:08",1
"19/09/01","04:50",0.0,21.5,94.9,1011.6,336.8,1.3,2.0,337.7,0.00,20.7,24.6,"04:46:48",1
"19/09/01","05:00",0.0,21.5,94.8,1011.9,312.1,1.3,1.8,314.6,0.00,20.7,24.3,"04:54:16",1
"19/09/01","05:10",0.0,21.5,95.0,1012.1,305.2,1.3,1.8,315.7,0.00,20.7,24.3,"05:00:16",1
"19/09/01","05:20",0.0,21.6,95.1,1012.3,303.4,1.0,1.4,310.3,0.00,20.8,24.7,"05:10:48",1
"19/09/01","05:30",0.0,21.6,94.9,1012.1,296.3,1.0,1.4,254.3,0.00,20.8,24.4,"05:25:12",1
"19/09/01","05:40",0.0,21.6,95.0,1012.3,297.7,1.1,1.4,268.8,0.00,20.8,24.3,"05:39:04",1
"19/09/01","05:50",0.0,21.6,95.0,1012.6,303.4,1.2,1.7,309.1,0.00,20.8,24.2,"05:40:24",1
"19/09/01","06:00",0.0,21.6,94.9,1012.3,323.8,1.3,1.9,329.4,0.00,20.8,24.3,"05:53:20",1
"19/09/01","06:10",0.0,21.5,94.9,1012.6,303.9,1.0,1.2,316.5,0.00,20.7,24.4,"06:00:16",1
"19/09/01","06:20",0.0,21.5,95.1,1012.6,315.1,1.2,1.6,324.7,0.00,20.7,24.2,"06:19:20",1
"19/09/01","06:30",0.0,21.6,95.3,1012.6,303.1,1.1,1.7,326.1,0.00,20.9,24.4,"06:20:32",1
"19/09/01","06:40",0.0,21.5,95.1,1012.8,293.4,0.8,1.2,296.2,0.00,20.7,24.4,"06:36:00",1
"19/09/01","06:50",0.0,21.5,95.2,1012.3,286.1,1.0,1.2,268.6,0.00,20.7,24.3,"06:41:20",1
"19/09/01","07:00",0.0,21.6,95.2,1012.6,295.9,1.0,1.1,293.3,0.00,20.8,24.1,"06:52:16",1
"19/09/01","07:10",0.0,21.7,95.2,1012.6,294.5,0.8,0.9,293.9,0.00,20.9,24.2,"07:00:08",1
"19/09/01","07:20",0.0,21.8,95.1,1012.6,308.6,1.1,2.0,326.2,0.01,21.0,24.4,"07:18:48",1
"19/09/01","07:30",0.0,21.9,94.9,1012.6,320.5,1.3,2.1,323.2,0.01,21.1,24.4,"07:20:48",1
"19/09/01","07:40",0.0,22.0,94.9,1012.6,299.8,0.8,1.4,320.2,0.01,21.2,24.2,"07:30:40",1
"19/09/01","07:50",0.0,22.0,94.7,1012.8,285.4,0.8,1.0,282.2,0.02,21.2,24.4,"07:44:08",1
"19/09/01","08:00",0.0,22.3,94.9,1012.8,299.1,0.7,1.6,323.2,0.02,21.5,24.2,"07:50:40",1
"19/09/01","08:10",0.0,22.2,94.2,1012.8,280.8,0.3,1.0,302.0,0.02,21.3,24.3,"08:00:56",1
"19/09/01","08:20",0.0,22.4,94.5,1013.0,293.6,0.2,0.6,291.9,0.05,21.5,24.5,"08:19:28",1
"19/09/01","08:30",0.0,22.6,94.4,1012.8,283.8,0.6,0.9,269.6,0.10,21.7,24.5,"08:22:08",1
"19/09/01","08:40",0.0,23.1,93.2,1013.0,295.8,0.6,1.1,313.4,0.11,22.0,24.3,"08:34:00",1
"19/09/01","08:50",0.0,23.3,92.8,1012.8,292.6,0.6,1.2,245.7,0.08,22.1,24.5,"08:45:36",1
"19/09/01","09:00",0.0,23.3,91.6,1013.0,336.2,0.8,1.6,331.2,0.10,21.9,24.7,"08:52:32",1
"19/09/01","09:10",0.0,23.7,90.7,1013.0,348.2,0.7,1.6,332.0,0.13,22.1,24.6,"09:08:32",1
"19/09/01","09:20",0.0,23.9,88.8,1013.0,2.5,0.6,1.6,319.8,0.18,22.0,24.6,"09:10:16",1
"19/09/01","09:30",0.0,24.3,86.7,1013.0,257.6,0.5,1.0,5.9,0.21,22.0,24.7,"09:22:24",1
"19/09/01","09:40",0.0,24.3,85.8,1012.8,197.4,0.3,1.0,139.7,0.11,21.8,24.8,"09:35:44",1
"19/09/01","09:50",0.0,24.4,86.4,1012.6,139.4,0.1,0.5,123.8,0.10,22.0,24.8,"09:46:56",1
"19/09/01","10:00",0.0,25.1,83.7,1012.6,277.6,0.1,0.9,274.1,0.22,22.2,24.8,"09:57:36",1
"19/09/01","10:10",0.0,26.1,82.3,1012.1,198.6,0.2,1.0,312.0,0.36,22.9,24.9,"10:09:16",1
"19/09/01","10:20",0.0,25.5,80.6,1012.1,269.2,0.3,1.1,316.3,0.24,22.0,25.2,"10:17:12",1
"19/09/01","10:30",0.0,25.5,80.4,1012.1,333.0,0.7,1.7,350.6,0.17,21.9,25.2,"10:22:48",1
"19/09/01","10:40",0.0,26.0,81.9,1012.1,291.7,0.3,1.0,343.6,0.20,22.7,25.3,"10:33:12",1
"19/09/01","10:50",0.0,26.1,77.8,1012.1,43.9,0.7,1.4,39.9,0.22,22.0,25.4,"10:43:36",1
"19/09/01","11:00",0.0,26.5,77.0,1012.1,51.0,0.7,1.7,71.1,0.21,22.2,25.4,"10:56:00",1
"19/09/01","11:10",0.0,26.6,73.8,1012.3,31.1,0.6,1.8,335.8,0.22,21.6,25.5,"11:03:20",1
"19/09/01","11:20",0.0,26.8,74.1,1012.1,1.8,0.6,1.4,50.1,0.22,21.8,25.4,"11:19:12",1
"19/09/01","11:30",0.0,27.1,75.0,1012.3,56.6,0.6,1.3,70.1,0.26,22.3,25.7,"11:23:12",1
"19/09/01","11:40",0.0,27.5,72.8,1012.6,351.1,0.6,1.6,335.5,0.32,22.2,25.8,"11:33:12",1
"19/09/01","11:50",0.0,27.9,70.3,1012.8,23.2,0.7,1.7,57.2,0.35,22.0,26.0,"11:46:24",1
"19/09/01","12:00",0.0,27.8,69.7,1013.0,71.9,0.5,1.6,52.3,0.32,21.8,26.1,"11:56:56",1
"19/09/01","12:10",0.0,28.1,67.5,1013.0,19.4,0.7,1.7,23.7,0.26,21.6,26.2,"12:01:52",1
"19/09/01","12:20",0.0,28.1,67.9,1013.0,35.1,0.8,1.9,15.9,0.21,21.7,26.1,"12:12:48",1
"19/09/01","12:30",0.0,27.6,70.3,1013.0,334.0,0.5,1.1,10.8,0.13,21.7,26.4,"12:20:48",1
"19/09/01","12:40",0.0,27.6,68.3,1012.8,296.9,0.3,1.2,327.3,0.12,21.3,26.3,"12:33:12",1
"19/09/01","12:50",0.0,27.2,71.1,1012.3,334.5,0.7,1.7,356.8,0.15,21.5,26.3,"12:49:04",1
"19/09/01","13:00",0.0,27.4,71.0,1012.1,341.8,1.0,1.8,351.5,0.11,21.7,26.3,"12:54:32",1
"19/09/01","13:10",0.0,27.7,72.6,1012.1,337.5,0.8,1.6,353.2,0.16,22.4,26.3,"13:01:12",1
"19/09/01","13:20",0.0,27.5,70.4,1011.6,303.1,0.8,2.6,342.9,0.17,21.7,26.3,"13:10:16",1
"19/09/01","13:30",0.0,27.2,71.1,1011.6,283.8,0.7,2.8,229.6,0.13,21.5,26.3,"13:28:48",1
"19/09/01","13:40",0.0,27.4,71.9,1011.9,316.8,0.8,2.4,351.2,0.13,21.9,26.5,"13:35:52",1
"19/09/01","13:50",0.0,27.5,72.9,1011.4,313.3,0.7,1.9,346.0,0.15,22.2,26.3,"13:40:32",1
"19/09/01","14:00",0.0,27.5,70.5,1011.6,337.0,1.1,3.5,337.7,0.18,21.7,26.5,"13:55:36",1
"19/09/01","14:10",0.0,28.2,68.8,1011.4,303.0,0.7,1.9,337.9,0.25,22.0,26.4,"14:05:04",1
"19/09/01","14:20",0.0,28.4,64.7,1012.1,326.3,0.8,2.0,338.6,0.28,21.2,26.5,"14:16:56",1
"19/09/01","14:30",0.0,28.2,63.5,1012.3,285.7,0.8,2.4,301.5,0.29,20.7,26.5,"14:26:24",1
"19/09/01","14:40",0.0,27.7,66.1,1012.3,314.9,0.8,3.1,340.3,0.16,20.8,26.7,"14:36:16",1
"19/09/01","14:50",0.0,27.7,67.1,1011.9,323.5,0.8,2.6,343.0,0.12,21.1,26.7,"14:40:24",1
"19/09/01","15:00",0.0,27.6,67.8,1011.6,300.4,0.7,2.2,347.7,0.12,21.2,26.6,"14:50:56",1
"19/09/01","15:10",0.0,27.6,68.7,1011.6,267.3,0.7,2.2,226.8,0.14,21.4,26.5,"15:09:04",1
"19/09/01","15:20",0.0,27.7,67.8,1011.6,285.9,0.8,1.6,247.7,0.16,21.2,26.8,"15:12:08",1
"19/09/01","15:30",0.0,27.6,67.5,1011.2,297.2,1.0,2.0,16.6,0.14,21.1,26.7,"15:27:52",1
"19/09/01","15:40",0.0,27.5,68.9,1010.9,267.3,0.7,2.1,204.9,0.10,21.3,26.7,"15:31:28",1
"19/09/01","15:50",0.0,27.7,70.2,1010.7,288.9,0.5,2.2,222.5,0.10,21.8,26.6,"15:40:32",1
"19/09/01","16:00",0.0,27.7,69.1,1011.2,283.9,0.7,2.2,337.8,0.11,21.6,26.9,"15:58:56",1
"19/09/01","16:10",0.0,27.5,69.7,1010.4,279.8,1.0,3.1,344.0,0.11,21.5,26.8,"16:00:32",1
"19/09/01","16:20",0.0,27.6,68.8,1010.4,285.9,0.5,1.3,324.1,0.06,21.4,26.8,"16:10:48",1
"19/09/01","16:30",0.0,27.9,68.3,1010.4,281.3,0.2,1.1,325.6,0.05,21.6,26.5,"16:27:52",1
"19/09/01","16:40",0.0,27.9,69.5,1010.2,263.2,0.5,1.8,226.6,0.08,21.8,26.7,"16:39:28",1
"19/09/01","16:50",0.0,27.8,70.8,1010.2,224.3,1.0,1.8,212.6,0.10,22.1,26.8,"16:40:32",1
"19/09/01","17:00",0.0,27.6,72.3,1010.4,227.9,0.8,2.5,233.2,0.10,22.2,26.7,"16:57:28",1
"19/09/01","17:10",0.0,27.7,72.2,1010.4,254.6,0.6,1.6,229.2,0.07,22.3,26.8,"17:03:44",1
"19/09/01","17:20",0.0,27.9,71.3,1010.2,301.7,0.7,1.6,335.8,0.08,22.3,26.7,"17:18:08",1
"19/09/01","17:30",0.0,27.7,71.1,1010.0,338.9,1.6,2.6,352.7,0.05,22.0,26.5,"17:21:52",1
"19/09/01","17:40",0.0,27.3,72.1,1010.7,339.2,1.5,2.8,344.2,0.03,21.9,26.5,"17:32:32",1
"19/09/01","17:50",0.0,27.1,73.3,1011.4,338.1,1.1,2.2,339.5,0.03,21.9,26.6,"17:40:40",1
"19/09/01","18:00",0.0,27.1,74.2,1010.9,322.1,0.7,1.2,331.6,0.03,22.2,26.5,"17:58:56",1
"19/09/01","18:10",0.0,27.2,75.7,1010.9,307.3,0.7,1.2,323.3,0.03,22.6,26.4,"18:05:44",1
"19/09/01","18:20",0.0,26.9,77.0,1010.9,296.9,0.7,1.6,341.9,0.02,22.6,26.5,"18:18:40",1
"19/09/01","18:30",0.0,26.5,78.0,1010.4,301.9,0.8,1.8,325.6,0.01,22.4,26.2,"18:27:28",1
"19/09/01","18:40",0.0,26.2,79.1,1011.2,296.5,0.7,1.2,322.8,0.00,22.3,26.4,"18:30:16",1
"19/09/01","18:50",0.0,25.8,80.3,1011.4,309.6,0.8,1.8,316.2,0.00,22.2,26.4,"18:45:20",1
"19/09/01","19:00",0.0,25.3,81.6,1011.2,323.4,1.5,2.5,352.9,0.00,22.0,26.4,"18:53:20",1
"19/09/01","19:10",0.0,25.0,82.2,1011.4,312.4,1.1,2.5,323.5,0.00,21.8,26.2,"19:00:24",1
"19/09/01","19:20",0.0,24.8,83.1,1011.6,278.0,0.6,1.2,273.7,0.00,21.8,26.2,"19:19:52",1
"19/09/01","19:30",0.0,24.5,83.9,1012.1,280.9,0.7,1.4,267.5,0.00,21.6,26.1,"19:24:56",1
"19/09/01","19:40",0.0,24.3,84.7,1012.1,322.5,1.2,3.1,346.7,0.00,21.6,25.9,"19:35:36",1
"19/09/01","19:50",0.0,24.1,85.1,1011.9,331.3,1.3,2.6,329.9,0.00,21.5,26.0,"19:43:20",1
"19/09/01","20:00",0.0,24.0,85.7,1011.9,299.4,0.8,1.9,328.7,0.00,21.5,25.9,"19:52:56",1
"19/09/01","20:10",0.0,23.7,86.1,1012.1,281.7,0.5,1.0,289.7,0.00,21.3,25.7,"20:08:08",1
"19/09/01","20:20",0.0,23.6,86.8,1012.3,312.4,1.0,1.3,304.6,0.00,21.3,25.6,"20:11:20",1
"19/09/01","20:30",0.0,23.4,87.3,1012.6,297.6,0.7,1.0,304.2,0.00,21.2,25.6,"20:20:02",1
"19/09/01","20:40",0.0,23.3,87.7,1012.6,297.4,1.0,1.4,316.9,0.00,21.2,25.6,"20:39:52",1
"19/09/01","20:50",0.0,23.3,87.9,1013.0,309.4,1.2,1.7,317.0,0.00,21.2,25.7,"20:44:40",1
"19/09/01","21:00",0.0,23.2,87.9,1012.8,276.2,0.8,1.2,266.0,0.00,21.1,25.5,"20:55:28",1
"19/09/01","21:10",0.0,23.2,88.3,1013.0,304.1,1.0,1.4,318.1,0.00,21.2,25.5,"21:06:16",1
"19/09/01","21:20",0.0,23.0,88.4,1013.3,298.9,1.0,1.2,333.4,0.00,21.0,25.4,"21:11:12",1
"19/09/01","21:30",0.0,22.9,88.6,1013.5,295.0,1.1,1.4,303.4,0.00,21.0,25.4,"21:22:40",1
"19/09/01","21:40",0.0,22.9,88.5,1013.3,275.4,0.8,1.2,276.1,0.00,20.9,25.5,"21:36:40",1
"19/09/01","21:50",0.0,23.0,88.5,1013.5,301.1,1.2,1.9,326.5,0.00,21.0,25.1,"21:42:48",1
"19/09/01","22:00",0.0,23.0,88.4,1013.3,290.7,1.0,1.6,327.2,0.00,21.0,25.1,"21:51:20",1
"19/09/01","22:10",0.0,23.1,88.2,1013.0,283.9,1.0,1.6,310.4,0.00,21.1,25.2,"22:04:08",1
"19/09/01","22:20",0.0,23.0,88.0,1013.0,288.8,1.0,1.6,299.9,0.00,20.9,25.2,"22:14:32",1
"19/09/01","22:30",0.0,22.9,88.1,1013.0,290.9,0.6,1.2,267.6,0.00,20.9,25.1,"22:21:36",1
"19/09/01","22:40",0.0,22.8,88.1,1013.0,289.3,0.8,1.3,315.0,0.00,20.8,25.1,"22:39:20",1
"19/09/01","22:50",0.0,22.7,88.8,1013.3,323.7,1.3,1.8,340.5,0.00,20.8,25.2,"22:44:56",1
"19/09/01","23:00",0.0,22.4,89.6,1012.8,317.2,1.1,1.3,311.6,0.00,20.6,24.9,"22:50:48",1
"19/09/01","23:10",0.0,22.2,90.0,1013.0,307.0,1.1,1.4,314.5,0.00,20.5,24.9,"23:03:36",1
"19/09/01","23:20",0.0,22.1,90.6,1013.0,304.5,1.0,1.3,315.8,0.00,20.5,24.9,"23:11:36",1
"19/09/01","23:30",0.0,22.1,91.1,1013.0,307.9,1.1,1.3,319.3,0.00,20.6,24.9,"23:23:44",1
"19/09/01","23:40",0.0,22.2,91.2,1012.8,311.2,1.0,1.6,321.8,0.00,20.7,24.9,"23:39:52",1
"19/09/01","23:50",0.0,22.3,91.6,1013.0,316.4,1.2,1.6,316.4,0.00,20.9,24.8,"23:41:52",1
"19/09/01","24:00",0.0,22.2,91.3,1013.3,286.1,0.8,1.1,314.2,0.00,20.8,24.9,"23:58:00",1
